Regional Weather Roundup
Issued by NWS

Home | Current Version | Previous Version | Graphics & Text | Print | Product List | Glossary On
Versions: 1 2 3 4 5 6 7 8 9 10 11 12 13 14 15 16 17 18 19 20 21 22 23 24 25 26 27 28 29 30 31 32 33 34 35 36 37 38 39 40 41 42 43 44 45 46 47 48 49 50
000
ASUS44 KMEG 181300
RWRTN
TENNESSEE HOURLY STATE WEATHER ROUNDUP
NATIONAL WEATHER SERVICE MEMPHIS TN
800 AM CDT THU SEP 18 2014

TNZ002-004-019-021-049-052-054-088>092-181400-
WEST TENNESSEE

CITY           SKY/WX    TMP DP  RH WIND       PRES   REMARKS
MEMPHIS INTL   CLOUDY    68  63  84 NE6       29.96R
NWS MEMPHIS      N/A     65 N/A N/A MISG        N/A
JACKSON        CLOUDY    64  61  90 SE3       29.98R
DYERSBURG      CLOUDY    64  52  63 NE5       30.00R
UNION CITY     CLOUDY    61  59  94 CALM      29.99R
PARIS          CLOUDY    61  57  88 NE6       30.00R
LEXINGTON      PTSUNNY   63  61  94 E3        29.97S
SAVANNAH       MOSUNNY   64  64 100 CALM      29.98R
$$

TNZ008-025-027-028-033-062-065-066-181400-
NORTH MIDDLE TENNESSEE

CITY           SKY/WX    TMP DP  RH WIND       PRES   REMARKS
NASHVILLE      MOSUNNY   64  58  80 E5        30.01R
CLARKSVILLE    MOSUNNY   61  57  87 NE3       30.01R FOG
COOKEVILLE     MOSUNNY   59  57  94 CALM      30.02R
CROSSVILLE     PTSUNNY   60  54  80 CALM      30.04R
$$

TNZ061-075-076-078-094-096-097-181400-
SOUTH MIDDLE TENNESSEE

CITY           SKY/WX    TMP DP  RH WIND       PRES   REMARKS
TULLAHOMA      MOSUNNY   61  57  88 CALM      30.02S
WINCHESTER     MOSUNNY   61  57  88 CALM      30.01S
COLUMBIA       CLOUDY    61  61 100 CALM      29.98S
SHELBYVILLE    MOSUNNY   61  61 100 CALM      30.02R
$$

TNZ017-018-042-046-047-181400-
NORTHEAST TENNESSEE

CITY           SKY/WX    TMP DP  RH WIND       PRES   REMARKS
TRI CITIES     FOG       57  55  93 CALM      30.04R VSB 1
ELIZABETHTON   MOSUNNY   57  55  94 CALM      30.04S
$$

TNZ012-013-036-069-073-074-181400-
CENTRAL EAST TENNESSEE

CITY           SKY/WX    TMP DP  RH WIND       PRES   REMARKS
KNOXVILLE      PTSUNNY   64  57  78 NE5       30.01R
OAK RIDGE      MOSUNNY   63  58  83 CALM      30.03R
GATLINBURG     SUNNY     63  59  88 CALM      30.02R
$$

TNZ083-085-099-181400-
SOUTHEAST TENNESSEE

CITY           SKY/WX    TMP DP  RH WIND       PRES   REMARKS
CHATTANOOGA    PTSUNNY   65  58  78 CALM      30.01S
$$

SKY/WX REPORTED AS FAIR MEANS FEW OR NO CLOUDS BELOW
12 THOUSAND FEET.



USA.gov is the U.S. government's official web portal to all federal, state and local government web resources and services.